Weather History for Wausau, WI

Change the Weather History Date:

Thursday, August 2, 2012

  Actual Average Record
Temperature  
Mean Temperature 79 °F 69 °F  
Max Temperature 89 °F 79 °F 99 °F (1964)
Min Temperature 68 °F 58 °F 41 °F (1920)
Degree Days  
Heating Degree Days 0 1  
Month to date heating degree days 0 2  
Since 1 June heating degree days 41 114  
Since 1 July heating degree days 0 25  
Cooling Degree Days 14 5  
Month to date cooling degree days 23 10  
Year to date cooling degree days 560 270  
Since 1 June cooling degree days 517 251  
Growing Degree Days 29 (Base 50)    
Moisture  
Dew Point 62 °F    
Average Humidity 60    
Maximum Humidity 84    
Minimum Humidity 35    
Precipitation  
Precipitation 0.00 in 0.14 in 2.45 in (2006)
Month to date precipitation T 0.28  
Year to date precipitation 16.77 18.33  
Snow  
Snow 0.00 in 0.00 in 0.00 in ()
Month to date snowfall 0.0 0.0  
Since 1 June snowfall 0.0 0.0  
Since 1 July snowfall 0.0 0.0  
Snow Depth 0.00 in    
Sea Level Pressure  
Sea Level Pressure 29.83 in    
Wind  
Wind Speed 5 mph (West)    
Max Wind Speed 17 mph    
Max Gust Speed 22 mph    
Visibility 10 miles    
Events      
T = Trace of Precipitation, MM = Missing Value Source: NWS Daily Summary

Daily Weather History Graph

Daily Weather History Graph

Search for Another Location

Airport:

Trip Planner

Search our weather history database for the weather conditions in past years. The results will help you decide how hot, cold, wet, or windy it might be!

Date:

Astronomy

Aug. 02, 2012 Rise Set
Actual Time 5:45 AM CDT 8:22 PM CDT
Civil Twilight 5:12 AM CDT 8:56 PM CDT
Nautical Twilight 4:30 AM CDT 9:38 PM CDT
Astronomical Twilight 3:41 AM CDT 10:26 PM CDT
Moon 8:22 PM CDT (8/2) 6:27 AM CDT (8/2)
Length of Visible Light 15h 44m
Length of Day
14h 37m
Full, 100% of the Moon is Illuminated
Aug 2
Full
Aug 9
Last Quarter
Aug 17
New
Aug 24
First Quarter
Aug 31
Full

Hourly Weather History & Observations

Time (CDT) Temp. Heat Index Dew Point Humidity Pressure Visibility Wind Dir Wind Speed Gust Speed Precip Events Conditions
12:54 AM 79.0 °F - 66.0 °F 64% 29.78 in 10.0 mi SW 5.8 mph - N/A   Clear
2:54 AM 75.0 °F - 64.9 °F 71% 29.79 in 10.0 mi West 4.6 mph - N/A   Clear
3:54 AM 75.0 °F - 64.9 °F 71% 29.78 in 10.0 mi WNW 5.8 mph - N/A   Clear
4:54 AM 73.0 °F - 64.9 °F 76% 29.79 in 10.0 mi West 3.5 mph - N/A   Clear
5:54 AM 71.1 °F - 64.9 °F 81% 29.81 in 10.0 mi WSW 3.5 mph - N/A   Clear
6:54 AM 71.1 °F - 66.0 °F 84% 29.84 in 10.0 mi SW 5.8 mph - N/A   Clear
7:54 AM 71.1 °F - 64.9 °F 81% 29.86 in 10.0 mi West 6.9 mph - N/A   Scattered Clouds
8:54 AM 73.9 °F - 64.9 °F 73% 29.85 in 10.0 mi WNW 5.8 mph - N/A   Partly Cloudy
9:54 AM 75.9 °F - 64.9 °F 69% 29.86 in 10.0 mi West 5.8 mph - N/A   Mostly Cloudy
10:54 AM 77.0 °F - 66.0 °F 69% 29.85 in 10.0 mi NW 3.5 mph - N/A   Mostly Cloudy
11:54 AM 82.0 °F 83.4 °F 64.0 °F 54% 29.84 in 10.0 mi Variable 4.6 mph - N/A   Partly Cloudy
1:54 PM 86.0 °F 85.4 °F 59.0 °F 40% 29.82 in 10.0 mi SW 6.9 mph - N/A   Clear
2:54 PM 87.1 °F 86.1 °F 57.9 °F 37% 29.82 in 10.0 mi Variable 6.9 mph - N/A   Clear
3:54 PM 87.1 °F 86.1 °F 57.9 °F 37% 29.82 in 10.0 mi NNW 8.1 mph - N/A   Clear
4:54 PM 87.1 °F 85.9 °F 57.0 °F 36% 29.81 in 10.0 mi WNW 6.9 mph - N/A   Clear
5:54 PM 87.1 °F 86.1 °F 57.9 °F 37% 29.81 in 10.0 mi NNW 4.6 mph - N/A   Partly Cloudy
6:54 PM 86.0 °F 84.5 °F 55.0 °F 35% 29.81 in 10.0 mi WNW 11.5 mph - N/A   Clear
7:54 PM 82.9 °F 82.1 °F 55.9 °F 39% 29.82 in 10.0 mi WNW 6.9 mph - N/A   Clear
8:54 PM 75.9 °F - 59.0 °F 56% 29.85 in 10.0 mi WNW 4.6 mph - N/A   Clear
9:54 PM 75.9 °F - 60.1 °F 58% 29.86 in 10.0 mi Calm Calm - N/A   Clear
10:54 PM 73.0 °F - 62.1 °F 68% 29.88 in 10.0 mi Calm Calm - N/A   Clear